Regional Weather Roundup
Issued by NWS Sioux Falls, SD

Home | Current Version | Previous Version | Text Only | Print | Product List | Glossary On
Versions: 1 2 3 4 5 6 7 8 9 10 11 12 13 14 15 16 17 18 19 20 21 22 23 24 25 26 27 28 29 30 31 32 33 34 35 36 37 38 39 40 41 42 43 44 45 46 47 48 49 50
000
ASUS43 KFSD 300810
RWRFSD

WEATHER ROUNDUP FOR SE SOUTH DAKOTA/SW MINNESOTA/NW IOWA
NATIONAL WEATHER SERVICE SIOUX FALLS SD
300 AM CDT SAT AUG 30 2014

NOTE: "FAIR" INDICATES FEW OR NO CLOUDS BELOW 12,000 FEET WITH NO
SIGNIFICANT WEATHER AND OR OBSTRUCTIONS TO VISIBILITY.


SDZ038>040-050-052>070-300900-
SOUTHEAST SOUTH DAKOTA

CITY           SKY/WX    TMP DP  RH WIND       PRES   REMARKS
CHAMBERLAIN    CLEAR     59  57  92 N6        29.96R
HURON          CLOUDY    61  59  93 N12       29.91R
MADISON        CLOUDY    63  63 100 N8        29.89R
MITCHELL       MOCLDY    61  60  97 MISG      29.92R
SIOUX FALLS    PTCLDY    66  64  93 NW7       29.86R
WINNER         FAIR      56  55  97 NW6       29.98R
YANKTON        MOCLDY    64  63  94 NW10      29.89R
$$

MNZ071-072-080-081-089-090-097-098-300900-
SOUTHWEST MINNESOTA

CITY           SKY/WX    TMP DP  RH WIND       PRES   REMARKS
FAIRMONT       CLOUDY    64  55  72 NW6       29.80R
JACKSON        CLOUDY    66  64  94 NW6       29.83R
LUVERNE        MOCLDY    64  63  94 CALM      29.86R FOG
MARSHALL       CLOUDY    64  63  94 NW13      29.83R
MONTEVIDEO     CLOUDY    64  64 100 N12       29.84R FOG
PIPESTONE      MOCLDY    64  64 100 N5        29.86S
REDWOOD FALLS  MOCLDY    65  65 100 NW8       29.80S
TRACY          MOCLDY    66  65  97 NW7       29.84R
WINDOM         MOCLDY    66  64  94 NW6       29.82S FOG
WORTHINGTON    PTCLDY    66  64  94 NW7       29.85R
$$

IAZ001>003-012>014-020>022-031-032-NEZ013-014-SDZ071-300900-
NORTHWEST IOWA

CITY           SKY/WX    TMP DP  RH WIND       PRES   REMARKS
CHEROKEE       PTCLDY    64  64 100 CALM      29.84R
DENISON        FOG       64  64 100 CALM      29.83S VSB 1/2
ESTHERVILLE    MOCLDY    64  63  96 W5        29.81S
LE MARS          N/A     64  64 100 W3        29.85S
ORANGE CITY    PTCLDY    64  61  88 NW6       29.85S FOG
SHELDON        CLOUDY    63  63 100 CALM      29.84R FOG
SIOUX CITY     CLEAR     64  62  93 CALM      29.85S
SPENCER        MOCLDY    63  62  97 NW7       29.83R
STORM LAKE     CLOUDY    64  64 100 NW10      29.84R FOG
$$

ABBREVIATIONS USED IN REMARKS
   TC - TEMPERATURE IN CELSIUS
  WCI - WIND CHILL INDEX
   HX - HEAT INDEX
  VSB - VISIBILITY




USA.gov is the U.S. government's official web portal to all federal, state and local government web resources and services.